Preview of NWS' New Version of Forecast
This preview is not operational and should not be used for support decisions.

Regional Weather Roundup (RWR)

Issued by National Weather Service (NWS)

                            
000
ASUS44 KMEG 221210
RWRTN 
TENNESSEE HOURLY STATE WEATHER ROUNDUP
NATIONAL WEATHER SERVICE MEMPHIS TN
700 AM CDT MON JUL 22 2019

TNZ002-004-019-021-049-052-054-088>092-221300-
WEST TENNESSEE
  
CITY           SKY/WX    TMP DP  RH WIND       PRES   REMARKS
MEMPHIS INTL   CLOUDY    76  75  97 S7        29.94S                  
NWS MEMPHIS      N/A     77 N/A N/A MISG        N/A                   
JACKSON        FAIR      76  75  97 SW6       29.95R                  
DYERSBURG      FAIR      76  76 100 CALM      29.94R                  
SOMERVILLE     CLOUDY    75  75 100 S7        29.94R                  
COVINGTON      PTSUNNY   77  77 100 SW10      29.92R                  
UNION CITY     SUNNY     77  75  94 S7        29.91R FOG              
BOLIVAR        CLOUDY    75  73  94 S6        29.95R                  
PARIS          CLOUDY    75  75 100 SW7       29.94R                  
HUNTINGDON     MOSUNNY   75  75 100 SW5       29.94R                  
LEXINGTON      CLOUDY    75  75 100 S5        29.95R                  
SELMER         CLOUDY    75  73  94 SW5       29.96R FOG              
SAVANNAH       CLOUDY    77  75  94 VRB3      29.96R                  
$$

TNZ008-025-027-028-033-062-065-066-221300-
NORTH MIDDLE TENNESSEE
  
CITY           SKY/WX    TMP DP  RH WIND       PRES   REMARKS
NASHVILLE      CLOUDY    78  72  81 SW5       29.97R                  
PORTLAND       CLOUDY    77  75  94 SW8       29.94S                  
CLARKSVILLE    PTSUNNY   77  75  93 SW7       29.93R                  
LEBANON        PTSUNNY   75  73  94 SW7       29.95R                  
SMYRNA         CLOUDY    76  74  93 CALM      29.98R                  
MURFREESBORO   PTSUNNY   75  72  88 SW8       29.96R                  
LIVINGSTON     CLOUDY    72  70  94 SW8       29.98S                  
GALLATIN       CLOUDY    77  75  94 S6        29.98R                  
CROSSVILLE     FAIR      71  68  90 SW6       30.04S                  
ROCKWOOD       CLOUDY    73  72  94 SW5       30.03R                  
$$

TNZ061-075-076-078-094-096-097-221300-
SOUTH MIDDLE TENNESSEE
  
CITY           SKY/WX    TMP DP  RH WIND       PRES   REMARKS
LAWRENCEBURG   CLOUDY    73  72  94 CALM      29.99S FOG              
LEWISBURG      CLOUDY    75  73  94 S3        29.98R                  
FAYETTEVILLE   CLOUDY    73  73 100 SW3       30.01R                  
TULLAHOMA      PTSUNNY   73  72  94 SW5       30.00R                  
WINCHESTER     CLOUDY    73  72  94 CALM      30.01R                  
MCMINNVILLE    SUNNY     73  72  94 VRB5      30.00R                  
COLUMBIA       PTSUNNY   75  75 100 S7        29.96S FOG              
SHELBYVILLE    MOSUNNY   73  73 100 S7        29.99R                  
$$

TNZ017-018-042-046-047-221300-
NORTHEAST TENNESSEE
  
CITY           SKY/WX    TMP DP  RH WIND       PRES   REMARKS
TRI CITIES     LGT RAIN  72  69  90 S3        30.03R                  
ELIZABETHTON   LGT RAIN  72  72 100 CALM      30.03S                  
GREENEVILLE    PTSUNNY   72  70  94 CALM      30.03R                  
$$

TNZ012-013-036-069-073-074-221300-
CENTRAL EAST TENNESSEE
  
CITY           SKY/WX    TMP DP  RH WIND       PRES   REMARKS
KNOXVILLE      CLOUDY    76  70  82 SW9       30.00R                  
OAK RIDGE      PTSUNNY   77  71  82 VRB3      30.01R                  
DOWNTOWN KNOXV CLOUDY    75  75 100 CALM      30.00R                  
GATLINBURG     CLOUDY    75  73  94 CALM      30.00R                  
MORRISTOWN     MOSUNNY   73  73 100 W6        30.01R                  
JACKSBORO      CLOUDY    73  73 100 CALM      30.03R                  
$$

TNZ083-085-099-221300-
SOUTHEAST TENNESSEE
  
CITY           SKY/WX    TMP DP  RH WIND       PRES   REMARKS
CHATTANOOGA    PTSUNNY   77  73  87 SW6       30.02R                  
DAYTON         CLOUDY    77  73  88 CALM      30.00R                  
$$

SKY/WX REPORTED AS FAIR MEANS FEW OR NO CLOUDS BELOW
12 THOUSAND FEET.